Lid_Strength_Index
8 12 14 12 12 12 12 11 12 12 10 10 11 11 10 8 8 7 6 5 5 5 3 2 2 1 1 1 1 1 1 1 0 1 1 1 1 1 0 -0 -1 -1 -1 -1
10 13 10 10 10 12 12 13 13 12 11 11 10 10 9 8 8 8 6 6 5 5 4 4 3 2 2 1 1 1 1 1 1 1 1 1 1 0 0 -0 -0 -1 -1 -1
13 12 9 10 12 13 13 13 14 14 12 12 12 12 10 8 8 7 7 7 6 6 6 5 5 5 5 5 4 2 1 1 1 0 0 0 0 0 1 1 0 -0 -0 -0
10 10 11 11 12 12 14 11 12 13 14 16 13 16 12 10 11 10 8 7 6 6 6 6 6 6 6 5 5 5 4 4 3 2 1 1 2 2 1 1 0 0 -0 -0
12 11 11 12 12 10 12 10 12 13 14 14 14 16 13 13 13 12 10 9 9 8 8 7 6 6 5 5 4 3 3 3 3 2 3 2 2 1 1 1 1 0 -0 -0
9 7 9 10 10 10 9 11 11 11 13 17 14 15 15 12 13 12 12 10 8 8 8 8 7 7 6 5 4 4 4 4 3 3 3 3 3 3 3 2 2 1 0 0
10 10 8 8 10 9 10 13 18 19 19 18 15 16 14 12 11 10 10 10 9 8 8 8 7 7 6 6 5 5 4 5 4 4 4 4 4 3 3 3 3 2 1 1
13 14 9 8 9 11 11 12 17 22 20 16 15 17 14 11 10 10 9 9 8 8 7 6 6 6 6 6 5 5 5 6 5 5 5 4 4 4 4 4 4 3 2 2
14 13 9 8 8 8 11 13 11 15 16 17 15 13 11 10 12 11 11 10 9 7 7 6 6 6 6 6 6 6 6 7 7 7 6 6 5 5 5 5 4 4 4 5
11 15 9 9 8 8 9 9 14 15 20 20 16 15 14 12 12 11 11 11 10 9 8 7 6 6 6 6 6 7 7 7 7 7 7 7 7 7 6 6 6 6 6 6
9 12 12 9 11 11 11 12 11 12 14 18 18 15 11 12 11 11 10 10 9 9 9 8 7 7 7 7 7 7 7 8 8 8 8 8 8 8 7 7 7 7 7 6
11 12 15 12 9 8 9 10 11 15 17 14 15 15 10 10 10 9 9 9 8 8 8 7 7 7 7 8 8 8 8 8 8 8 8 8 8 8 8 8 8 7 7 7
10 13 17 16 12 9 11 10 10 12 12 16 17 14 9 9 8 7 7 7 7 7 7 7 7 7 7 7 7 7 7 7 8 8 8 8 7 8 8 8 7 7 7 7
8 12 14 17 15 12 14 12 11 12 16 14 14 12 10 8 8 7 7 7 7 7 7 6 6 6 6 6 7 7 7 7 7 7 7 7 7 7 7 7 7 7 6 6
9 14 12 11 11 11 11 12 12 14 12 16 12 13 10 8 7 7 6 6 7 7 7 7 6 6 6 6 6 5 5 5 6 6 6 6 6 6 6 6 6 6 6 6
9 13 12 14 12 12 13 12 11 11 11 12 11 12 7 6 6 7 7 6 6 6 6 6 6 6 6 5 6 6 6 6 6 6 7 6 6 7 7 6 6 7 7 7
10 12 13 15 13 13 15 13 11 11 10 10 13 10 8 8 7 7 7 6 6 5 6 5 5 5 5 5 6 6 6 6 6 6 7 7 7 7 7 7 7 8 8 8
11 11 12 14 14 19 12 10 10 10 9 9 9 8 7 8 7 6 6 6 6 5 5 5 5 5 4 4 5 5 6 6 6 6 6 7 7 7 7 8 8 8 7 7
8 10 13 15 15 13 12 11 11 12 12 9 10 9 8 7 7 7 5 5 6 6 5 4 4 3 3 4 5 6 6 6 6 7 7 7 8 8 9 9 8 8 8 8
10 9 12 14 17 19 12 9 7 7 13 8 8 8 8 8 11 9 6 5 5 5 4 5 4 4 4 4 5 6 7 7 8 8 9 9 9 8 8 8 9 9 8 9
14 13 14 14 16 14 9 8 7 14 12 7 6 6 7 8 7 5 4 5 4 5 4 4 5 5 5 6 6 7 7 8 9 9 10 10 10 9 8 8 9 9 9 10
14 15 15 13 16 18 7 8 11 8 6 6 6 5 6 5 4 4 4 4 5 5 5 6 6 7 8 8 8 8 8 10 10 10 11 11 11 10 9 10 10 10 10 10
15 12 12 12 12 8 6 6 5 5 6 5 5 4 5 5 5 4 4 4 5 6 7 7 7 8 9 9 9 10 10 11 11 12 13 13 12 11 10 10 10 10 10 10
12 9 12 11 10 8 6 6 5 6 6 5 4 4 4 5 5 5 6 6 6 7 8 8 8 9 9 10 11 11 11 11 11 12 13 13 12 11 11 10 10 9 10 11
10 10 11 12 9 8 7 6 6 6 5 5 5 5 5 5 5 5 6 6 7 8 8 9 10 10 10 11 12 12 12 12 12 12 13 12 11 11 11 11 11 10 11 10
9 10 11 12 8 8 8 6 5 6 6 5 6 6 6 6 6 5 6 6 7 8 8 9 9 11 11 11 11 11 12 12 12 13 13 12 12 12 12 12 12 11 11 11